Regional Weather Roundup
Issued by NWS

Home | Current Version | Previous Version | Graphics & Text | Print | Product List | Glossary On
Versions: 1 2 3 4 5 6 7 8 9 10 11 12 13 14 15 16 17 18 19 20 21 22 23 24 25 26 27 28 29 30 31 32 33 34 35 36 37 38 39 40 41 42 43 44 45 46 47 48 49 50
000
ASUS45 KTFX 261019
RWRMT
MONTANA HOURLY WEATHER ROUNDUP
NATIONAL WEATHER SERVICE GREAT FALLS MT
319 AM MST MON JAN 26 2015

NOTE: "FAIR" INDICATES FEW OR NO CLOUDS BELOW 12000 FEET WITH NO
SIGNIFICANT WEATHER AND/OR OBSTRUCTIONS TO VISIBILITY.

* THESE STATIONS ARE NOT UNDER NWS QUALITY CONTROL. THEY DO NOT
   REPORT WEATHER SUCH AS PRECIPITATION OR FOG.

MTZ001>007-043-261100-
WEST OF THE DIVIDE
CITY           SKY/WX    TMP DP  RH WIND       PRES   REMARKS
KALISPELL      FOG       23  21  92 W3        30.15F VSB 3/4
MISSOULA       CLEAR     27  25  92 N5        30.24S WCI  21
BUTTE          CLEAR     27  23  85 CALM      30.28F
MULLAN PASS    PTCLDY    43  27  53 S9        30.19F
* ANACONDA     CLEAR     45  27  49 SE6        N/A
* ESSEX        N/A       27  26  96 W1         N/A
* EUREKA APT   PTCLDY    32  28  85 NE3       30.15S
* HAMILTON APT CLEAR     46  28  50 S12       30.20F
* LIBBY APT    CLEAR     28  27  96 CALM      30.19S VSB 3
* LINCOLN      N/A       25  24  96 N1         N/A
* LOOKOUT PASS N/A       34  32  92 S4         N/A
* POLSON       N/A       38  30  73 SE1        N/A
* RONAN APT    CLEAR     30  30 100 N/A        N/A
* SEELEY LAKE  N/A       23  22  96 N/A        N/A
* THOMP F APT  CLEAR     33  31  92 N3G11      N/A
$$

MTZ008-052>055-261100-
SOUTHWEST MONTANA
CITY           SKY/WX    TMP DP  RH WIND       PRES   REMARKS
BOZEMAN        PTCLDY    28  25  89 CALM      30.26R
DILLON         CLEAR     36  27  70 S17       30.29F WCI  26
* W YELLOWSTON PTCLDY    29  28  96 N/A        N/A
* THREE FORKS  PTCLDY    37  34  89 N/A        N/A
* BOULDER HILL N/A       41  20  43 SW8        N/A
* MONIDA PASS  N/A       26  26 100 SE5        N/A   WCI  20
* RAYNOLDS PAS N/A       29  12  49 S14        N/A   WCI  18
* WHITEHALL    N/A       38  26  62 W9G14      N/A   WCI  32
* WISE RIVER   N/A       27  24  88 W2         N/A
$$

MTZ009>010-012-014-046-048-049-054-261100-
EAST SLOPES AND CENTRAL MONTANA
CITY           SKY/WX    TMP DP  RH WIND       PRES   REMARKS
CUT BANK       CLOUDY    46  28  50 W12       30.00S
GREAT FALLS    CLOUDY    54  27  35 SW20      30.05F
HELENA         PTCLDY    36  28  73 CALM      30.20S
MALMSTROM AFB  CLOUDY    54  27  35 SW22      30.05F
* CONRAD       MOCLDY    43  36  76 S9         N/A
* DEARBORN     N/A       54  26  34 SW14G22    N/A
* EAST GLACIER N/A       46  26  46 SW11       N/A
* MONARCH      N/A       50  22  33 SW16       N/A
* PENDROY      N/A       43  27  53 SW6G14     N/A
* ROGERS PASS  N/A       44  22  42 E9G14      N/A
* SWEET GRASS  N/A       45  29  54 W17        N/A
* WHITE SULPH  N/A       46  26  46 S12G20     N/A
$$

MTZ011-013-016-021-035-040-045-047-050-051-261100-
NORTH CENTRAL MONTANA
CITY           SKY/WX    TMP DP  RH WIND       PRES   REMARKS
HAVRE          PTCLDY    39  32  76 W7        29.98S WCI  34
LEWISTOWN      MOCLDY    46  28  50 W6        30.07S
* N BAR RANCH  CLEAR     52  27  38 NW9       30.04F
* CHINOOK      CLEAR     43  32  65 NW16G22   29.96F
* MALTA APT    CLEAR     37  28  70 N/A        N/A
* CHESTER      N/A       36  30  79 N/A        N/A
* DENTON       N/A       45  29  54 SW12       N/A
* GEYSER       N/A       55  26  33 SW22G29    N/A
* JUDITH GAP   N/A       51  29  43 W20G29     N/A
* LOMA         N/A       48  31  52 SW12       N/A
$$

MTZ017>020-022>027-061-062-261100-
NORTHEAST MONTANA
CITY           SKY/WX    TMP DP  RH WIND       PRES   REMARKS
GLASGOW        CLEAR     34  30  85 NW6       29.95R WCI  29
GLENDIVE       CLEAR     37  30  76 W12       29.96R WCI  29
JORDAN         CLEAR     36  30  79 NW13      29.97S WCI  27
SIDNEY         CLOUDY    36  32  85 CALM      29.96R
WOLF POINT     CLEAR     36  30  79 W7        29.96R WCI  30
* BEAVER HILL  N/A       39  33  79 SW10       N/A   WCI  32
* CIRCLE       N/A       39  34  82 W7         N/A   WCI  34
* LINDSAY DVD  N/A       43  33  68 W19G24     N/A
* NAVAJO       N/A       40  29  65 NW12G17    N/A   WCI  33
* PLENTYWOOD A PTCLDY    37  30  76 W7        29.89F WCI  32
* POPLAR APT   PTCLDY    34  32  92 N/A       29.94R
* SACO         N/A       33  31  92 NW9        N/A   WCI  25
* SCOBEY APT   PTCLDY    36  25  64 N/A        N/A
$$

MTZ028>042-056>058-261100-
SOUTHCENTRAL AND SOUTHEAST MONTANA
CITY           SKY/WX    TMP DP  RH WIND       PRES   REMARKS
BAKER          CLEAR     36  30  79 W9        29.95S WCI  29
BILLINGS       MOCLDY    46  28  50 W22       30.08F
LIVINGSTON     PTCLDY    48  27  44 SW31G44   30.16F
MILES CITY     CLEAR     37  30  76 W9        29.98F WCI  30
* BIG TIMBER A CLEAR     48  27  44 SW14G20   30.19R
* FORSYTH APT  CLEAR     45  30  56 SW7       30.00S
* LAUREL APT   PTCLDY    39  25  57 S11G16     N/A   WCI  32
* ROUNDUP APT  MOCLDY    54  27  35 SW20G25    N/A
* ALZADA       N/A       40  31  70 SW8        N/A   WCI  35
* HYSHAM       N/A       47  26  44 W4G9       N/A
* LAME DEER    N/A       49  28  44 W13G22     N/A
* REED POINT   N/A       56  30  37 W8G13      N/A
* ROSCOE HILL  N/A       54  15  21 W4G10      N/A
$$

REGIONAL REPORTS...DAKOTAS
CITY           SKY/WX    TMP DP  RH WIND       PRES   REMARKS
WILLISTON      CLOUDY    37  32  82 SW8       29.89R WCI  31
DICKINSON      CLOUDY    37  34  89 W10       29.87R WCI  30
BEACH          CLOUDY    37  36  96 NW6       29.93R WCI  32
CROSBY         FAIR      37  32  82 W15       29.85F WCI  28
TIOGA          MOCLDY    37  36  96 W16       29.86F WCI  28
WATFORD CITY   CLOUDY    37  32  82 SW5       29.88R WCI  33
BISMARCK       PTCLDY    41  32  70 NW13      29.82S
GRAND FORKS    CLEAR     36  30  79 NW12      29.62R WCI  28
FARGO          CLEAR     32  28  85 SW9       29.65F WCI  24
BUFFALO SD     CLEAR     36  30  79 W13       29.88S WCI  27
RAPID CITY     PTCLDY    52  28  40 NW17      29.97R
$$

REGIONAL REPORTS...WYOMING/IDAHO/WASHINGTON
CITY           SKY/WX    TMP DP  RH WIND       PRES   REMARKS
GILLETTE       PTCLDY    43  28  56 W12       30.09F
SHERIDAN       PTCLDY    36  27  70 SW6       30.09F WCI  31
CODY           MOCLDY    46  21  37 NE5       30.19S
YELLOWSTONE LA MOCLDY    19  18  96 CALM      30.46R
SALMON         CLOUDY    21  21 100 SE3       30.41R VSB 3/4
MULLAN PASS    PTCLDY    43  27  53 S9        30.19S
SAND POINT     FOG       34  34 100 CALM      30.17S VSB M1/4
SPOKANE        FOG       36  36 100 NE8       30.13F VSB M1/4 WCI  30
$$

REGIONAL REPORTS...ALBERTA
CITY           SKY/WX    TMP DP  RH WIND       PRES   REMARKS
CALGARY        N/A       37  28  70 S6        29.88S WCI  32
MEDICINE HAT   CLEAR     30  30 100 S3        29.92F
EDMONTON       MOCLDY    32  28  85 S7        29.84R WCI  25
WATERTON GATE  N/A       55  23  29 SW20G35    N/A
CARDSTON       N/A       57  30  36 W12G17     N/A
MILK RIVER     N/A       41  32  70 SW6        N/A
$$

REGIONAL REPORTS...SASKATCHEWAN
CITY           SKY/WX    TMP DP  RH WIND       PRES   REMARKS
SWIFT CURRENT  CLEAR     36  30  79 W10       29.89F WCI  29
REGINA         MOCLDY    37  30  76 W16       29.86R WCI  28
VAL MARIE      N/A       25  25 100 SW1        N/A
ASSINIBOIA     N/A       37  30  76 W14        N/A   WCI  28
CORONACH       N/A       36  30  79 W9         N/A   WCI  29

$$



USA.gov is the U.S. government's official web portal to all federal, state and local government web resources and services.